Palmdale, CA

11:03 PM PDT on September 21, 2019 (GMT -0700)
Palmdale Af Plant 42

Weather History for KPMD - August, 2019

Change the Weather History Date:

Sunday, August 18, 2019

  Actual Average Record
Temperature  
Mean Temperature 80 °F 81 °F  
Max Temperature 95 °F 98 °F 108 °F (1950)
Min Temperature 64 °F 65 °F 47 °F (1978)
Degree Days  
Heating Degree Days 0 0  
Month to date heating degree days 0 0  
Since 1 June heating degree days 0 7  
Since 1 July heating degree days 0 0  
Cooling Degree Days 15 16  
Month to date cooling degree days 320 310  
Year to date cooling degree days 1316 1288  
Since 1 June cooling degree days 1225 1118  
Growing Degree Days 30 (Base 50)    
Moisture  
Dew Point 35 °F    
Average Humidity 26    
Maximum Humidity 40    
Minimum Humidity 11    
Precipitation  
Precipitation 0.00 in 0.00 in 0.10 in (1977)
Month to date precipitation T 0.05  
Year to date precipitation 5.21 5.47  
Snow  
Snow 0.00 in - - ()
Month to date snowfall 0.0  
Since 1 June snowfall 0.0  
Since 1 July snowfall 0.0  
Snow Depth 0.00 in    
Sea Level Pressure  
Sea Level Pressure 29.82 in    
Wind  
Wind Speed 11 mph (SW)    
Max Wind Speed 28 mph    
Max Gust Speed 32 mph    
Visibility 10 miles    
Events      
T = Trace of Precipitation, MM = Missing Value Source: NWS Daily Summary

Daily Weather History Graph

Daily Weather History Graph

Search for Another Location

Airport or City:

Astronomy

Aug. 18, 2019 Rise Set
Actual Time 6:15 AM PDT 7:36 PM PDT
Civil Twilight 5:48 AM PDT 8:03 PM PDT
Nautical Twilight 5:16 AM PDT 8:34 PM PDT
Astronomical Twilight 4:43 AM PDT 9:07 PM PDT
Moon 9:40 PM PDT (8/18) 8:59 AM PDT (8/18)
Length of Visible Light 14h 14m
Length of Day
13h 21m
Waning Gibbous, 91% of the Moon is Illuminated
Aug 18
Waning Gibbous
Aug 23
Last Quarter
Aug 30
New
Sep 5
First Quarter
Sep 13
Full

Hourly Weather History & Observations

Time (PDT) Temp. Dew Point Humidity Pressure Visibility Wind Dir Wind Speed Gust Speed Precip Events Conditions
12:53 AM 75.0 °F 28.0 °F 18% 29.79 in 10.0 mi SSW 10.4 mph - N/A   Clear
1:53 AM 73.0 °F 30.9 °F 21% 29.78 in 10.0 mi SSW 9.2 mph - N/A   Clear
2:53 AM 73.9 °F 32.0 °F 21% 29.78 in 10.0 mi South 10.4 mph - N/A   Clear
3:53 AM 72.0 °F 30.0 °F 21% 29.78 in 10.0 mi SSW 4.6 mph - N/A   Clear
4:53 AM 68.0 °F 36.0 °F 31% 29.79 in 10.0 mi Calm Calm - N/A   Clear
5:53 AM 66.0 °F 36.0 °F 33% 29.80 in 10.0 mi Calm Calm - N/A   Clear
6:53 AM 66.9 °F 41.0 °F 39% 29.82 in 10.0 mi SE 3.5 mph - N/A   Clear
7:53 AM 73.9 °F 43.0 °F 33% 29.83 in 10.0 mi SSE 6.9 mph - N/A   Clear
8:53 AM 82.9 °F 34.0 °F 17% 29.83 in 10.0 mi Variable 3.5 mph - N/A   Clear
9:53 AM 87.1 °F 32.0 °F 14% 29.83 in 10.0 mi SW 13.8 mph 20.7 mph N/A   Clear
10:53 AM 90.0 °F 32.0 °F 13% 29.84 in 10.0 mi SSW 16.1 mph - N/A   Clear
11:53 AM 91.9 °F 30.0 °F 11% 29.83 in 10.0 mi SW 16.1 mph - N/A   Clear
12:53 PM 93.0 °F 30.0 °F 11% 29.83 in 10.0 mi WSW 17.3 mph 25.3 mph N/A   Clear
1:53 PM 93.9 °F 30.9 °F 11% 29.82 in 10.0 mi WSW 19.6 mph 25.3 mph N/A   Clear
2:53 PM 93.9 °F 34.0 °F 12% 29.80 in 10.0 mi WSW 26.5 mph 32.2 mph N/A   Clear
3:53 PM 91.9 °F 35.1 °F 13% 29.79 in 10.0 mi SW 20.7 mph 28.8 mph N/A   Clear
4:53 PM 91.0 °F 36.0 °F 14% 29.79 in 10.0 mi SW 21.9 mph - N/A   Clear
5:53 PM 90.0 °F 34.0 °F 14% 29.80 in 10.0 mi SW 19.6 mph 25.3 mph N/A   Clear
6:53 PM 84.9 °F 39.0 °F 20% 29.81 in 10.0 mi WSW 12.7 mph - N/A   Clear
7:53 PM 81.0 °F 37.9 °F 21% 29.81 in 10.0 mi SW 11.5 mph - N/A   Clear
8:53 PM 78.1 °F 39.0 °F 25% 29.83 in 10.0 mi WSW 10.4 mph - N/A   Clear
9:53 PM 75.0 °F 39.0 °F 27% 29.86 in 10.0 mi WNW 4.6 mph - N/A   Clear
10:53 PM 73.0 °F 37.9 °F 28% 29.86 in 10.0 mi West 8.1 mph - N/A   Clear
11:53 PM 72.0 °F 37.9 °F 29% 29.86 in 10.0 mi South 4.6 mph - N/A   Clear